Regional Weather Roundup
Issued by NWS Jackson, KY

Home | Current Version | Previous Version | Text Only | Print | Product List | Glossary Off
Versions: 1 2 3 4 5 6 7 8 9 10 11 12 13 14 15 16 17 18 19 20 21 22 23 24 25 26 27 28 29 30 31 32 33 34 35 36 37 38 39 40 41 42 43 44 45 46 47 48 49 50

000
ASUS43 KJKL 291510
RWRJKL

EAST KENTUCKY HOURLY WEATHER ROUNDUP
NATIONAL WEATHER SERVICE JACKSON KY
1100 AM EDT MON JUN 29 2015

NOTE: "FAIR" INDICATES FEW OR NO CLOUDS BELOW 12,000 FEET WITH
NO SIGNIFICANT WEATHER AND/OR OBSTRUCTIONS TO VISIBILITY.

* THESE REPORTS ARE NOT UNDER NWS QUALITY CONTROL AND MAY NOT
  REPORT WEATHER SUCH AS PRECIPITATION AND FOG.

KYZ079-080-083-085-087-088-110-112-115-119-120-291600
...EASTERN KENTUCKY...

CITY           SKY/WX    TMP DP  RH WIND       PRES   REMARKS
JACKSON        CLOUDY    69  55  60 VRB5      29.94F
LONDON         MOSUNNY   74  55  51 S9        29.95F
SOMERSET*      DRIZZLE   68  57  68 SW10      29.94F
MONTICELLO*    MOSUNNY   74  62  66 S13       29.96F
MIDDLESBORO*   CLOUDY    70  58  65 S5        30.00F
HARLAN APT*      N/A     70  55  60 N5        30.00F
HAZARD APT*    LGT RAIN  72  57  60 S10G16    29.96F
BLACK MTN*       N/A     64  54  68 S6          N/A
PIKEVILLE APT* SUNNY     70  57  64 S6        29.97F
BIG SANDY*     MOSUNNY   73  58  59 S8        29.96F
MOREHEAD APT*  CLOUDY    64  59  82 SE7       29.92F
$$

KYZ035-036-041-042-044-050-067-078-099-291600
...CENTRAL KENTUCKY...

CITY           SKY/WX    TMP DP  RH WIND       PRES   REMARKS
MT STERLING*   PTSUNNY   72  59  64 SW14G21   29.90F
FLEMING/MASON* RAIN      61  59  94 E5        29.91S
DANVILLE*      MOSUNNY   73  61  64 SW16G23   29.90S
RICHMOND*      MOSUNNY   72  57  60 S15       29.90F
LEXINGTON      MOSUNNY   75  62  64 S14G23    29.86F
FRANKFORT      PTSUNNY   73  61  65 SW12G25   29.84F
$$

KYZ091>093-OHZ055-061-077-WVZ005-015-034-035-042-291600
...SOUTHERN OHIO/WEST VIRGINIA...

CITY           SKY/WX    TMP DP  RH WIND       PRES   REMARKS
COVINGTON      CLOUDY    63  60  90 SE9       29.84F
COLUMBUS       RAIN      62  59  90 CALM      29.93S FOG
DAYTON         HVY RAIN  62  60  93 SE16      29.85F FOG
WILMINGTON     LGT RAIN  60  57  89 SE8       29.88F
HUNTINGTON     PTSUNNY   69  57  65 SE6       29.93F
CHARLESTON     MOSUNNY   73  56  54 SE6       29.96F
PINEVILLE*     PTSUNNY   72  59  64 MISG      30.06F
BECKLEY        PTSUNNY   68  51  54 SW9       30.05F
BLUEFIELD      MOSUNNY   71  51  49 W13       30.07F
$$

VAZ002-007-008-TNZ017-027-036-066-071-291600
...SOUTHWEST VIRGINIA/EAST TENNESSEE...

CITY           SKY/WX    TMP DP  RH WIND       PRES   REMARKS
WISE*          SUNNY     70  50  49 SW10      30.05F
JONESVILLE*      N/A    N/A N/A N/A MISG        N/A
ABINGDON*      SUNNY     72  56  57 W8        30.06S
BRISTOL        MOSUNNY   73  57  57 S8        30.03F
KNOXVILLE      PTSUNNY   75  56  51 SW13      30.00S
OAK RIDGE      CLOUDY    71  57  61 CALM      30.02F
CROSSVILLE     PTSUNNY   70  60  70 SW9G17    30.02F
NASHVILLE      PTSUNNY   79  67  66 SW15G23   29.93S
$$

...KEY TO REMARKS...
VSB - VISIBILITY IN MILES
WCI - WIND CHILL INDEX
HX  - HEAT INDEX

$$



USA.gov is the U.S. government's official web portal to all federal, state and local government web resources and services.